^^
Saratoga-Weather Station Historical Data
Daily Summary for August 25, 2019 Units:  Metric    English   Both
Daily Weekly Monthly Yearly Custom
  High: Low: Average:
Temperature: 33.8 °C 25.2 °C 27.8 °C
Dew Point: 27.2 °C 24.2 °C 25.2 °C
Humidity: 96% 61% 86%
Wind Speed: 19.5km/h 0km/h 4.5km/h
Wind Gust: 25.7km/h - -
Wind- - South
Pressure: 1013.4 hPa 1008.7 hPa -
Precipitation: 37.59 mm    
Historical Graphs
 
 
Tabular Data for August 25, 2019
Time Temperature Dew Point Pressure Wind Wind Speed Wind Gust Humidity Rainfall Rate (Hourly) solar
00:00 27.9 °C 24.7 °C 1013.4 hPa SSW 1.4 km/h 9.7 km/h 83% 0 mm 0.00 W/m2
00:05 27.9 °C 24.7 °C 1013.4 hPa SSE 4.7 km/h 6.4 km/h 83% 0 mm 0.00 W/m2
00:10 27.8 °C 24.6 °C 1013.4 hPa South 1.4 km/h 3.2 km/h 83% 0 mm 0.00 W/m2
00:15 27.8 °C 24.8 °C 1013.4 hPa South 4.7 km/h 6.4 km/h 84% 0 mm 0.00 W/m2
00:20 27.8 °C 24.8 °C 1013.1 hPa SSW 4.7 km/h 4.8 km/h 84% 0 mm 0.00 W/m2
00:25 27.8 °C 24.8 °C 1013.1 hPa South 3.2 km/h 3.2 km/h 84% 0 mm 0.00 W/m2
00:30 27.8 °C 24.8 °C 1013.1 hPa SW 6.4 km/h 8 km/h 84% 0 mm 0.00 W/m2
00:35 27.8 °C 24.8 °C 1013.1 hPa SW 1.4 km/h 11.3 km/h 84% 0 mm 0.00 W/m2
00:40 27.7 °C 24.7 °C 1013.1 hPa South 4.7 km/h 8 km/h 84% 0 mm 0.00 W/m2
00:45 27.7 °C 24.7 °C 1013.1 hPa South 1.4 km/h 9.7 km/h 84% 0 mm 0.00 W/m2
00:50 27.6 °C 24.8 °C 1013.1 hPa SSW 4.7 km/h 8 km/h 85% 0 mm 0.00 W/m2
00:55 27.6 °C 24.8 °C 1013.1 hPa South 3.2 km/h 6.4 km/h 85% 0 mm 0.00 W/m2
01:00 27.6 °C 24.8 °C 1012.8 hPa SW 6.4 km/h 6.4 km/h 85% 0 mm 0.00 W/m2
01:05 27.6 °C 24.8 °C 1012.8 hPa South 1.4 km/h 9.7 km/h 85% 0 mm 0.00 W/m2
01:10 27.6 °C 24.8 °C 1013.1 hPa WSW 4.7 km/h 6.4 km/h 85% 0 mm 0.00 W/m2
01:15 27.6 °C 25 °C 1012.8 hPa South 3.2 km/h 6.4 km/h 86% 0 mm 0.00 W/m2
01:20 27.4 °C 24.8 °C 1012.8 hPa SW 11.1 km/h 11.3 km/h 86% 0 mm 0.00 W/m2
01:25 27.4 °C 24.8 °C 1012.8 hPa SSW 4.7 km/h 6.4 km/h 86% 0 mm 0.00 W/m2
01:30 27.4 °C 25 °C 1012.8 hPa South 1.4 km/h 11.3 km/h 87% 0 mm 0.00 W/m2
01:35 27.4 °C 25 °C 1012.4 hPa SSW 1.4 km/h 4.8 km/h 87% 0 mm 0.00 W/m2
01:40 27.3 °C 24.9 °C 1012.4 hPa South 11.3 km/h 11.3 km/h 87% 0 mm 0.00 W/m2
01:45 27.3 °C 24.9 °C 1012.1 hPa SSW 3.2 km/h 8 km/h 87% 0 mm 0.00 W/m2
01:50 27.3 °C 24.9 °C 1012.1 hPa WSW 3.2 km/h 4.8 km/h 87% 0 mm 0.00 W/m2
01:55 27.3 °C 24.9 °C 1012.1 hPa SW 1.4 km/h 9.7 km/h 87% 0 mm 0.00 W/m2
02:00 27.3 °C 24.9 °C 1012.1 hPa SW 3.2 km/h 4.8 km/h 87% 0 mm 0.00 W/m2
02:05 27.4 °C 25 °C 1012.1 hPa WSW 3.2 km/h 6.4 km/h 87% 0 mm 0.00 W/m2
02:10 27.4 °C 25 °C 1012.4 hPa South 3.2 km/h 4.8 km/h 87% 0 mm 0.00 W/m2
02:15 27.4 °C 25 °C 1012.4 hPa WSW 3.2 km/h 6.4 km/h 87% 0 mm 0.00 W/m2
02:20 27.3 °C 24.9 °C 1012.1 hPa SW 8 km/h 8 km/h 87% 0 mm 0.00 W/m2
02:25 27.3 °C 24.9 °C 1012.1 hPa SW 3.2 km/h 3.2 km/h 87% 0 mm 0.00 W/m2
02:30 27.3 °C 24.9 °C 1011.7 hPa SSW 3.2 km/h 4.8 km/h 87% 0 mm 0.00 W/m2
02:35 27.2 °C 25 °C 1011.7 hPa SSW 1.4 km/h 4.8 km/h 88% 0 mm 0.00 W/m2
02:40 27.1 °C 24.9 °C 1012.1 hPa SSW 1.4 km/h 3.2 km/h 88% 0 mm 0.00 W/m2
02:45 27.1 °C 24.9 °C 1012.1 hPa Calm   3.2 km/h 88% 0 mm 0.00 W/m2
02:50 27.2 °C 25 °C 1012.1 hPa SSW 1.4 km/h 3.2 km/h 88% 0 mm 0.00 W/m2
02:55 27.2 °C 25 °C 1012.1 hPa Calm   1.6 km/h 88% 0 mm 0.00 W/m2
03:00 27.1 °C 24.9 °C 1012.1 hPa SSW 1.4 km/h 3.2 km/h 88% 0 mm 0.00 W/m2
03:05 27 °C 25 °C 1012.1 hPa SSW 1.4 km/h 3.2 km/h 89% 0 mm 0.00 W/m2
03:10 27 °C 25 °C 1012.1 hPa SSW 4.8 km/h 4.8 km/h 89% 0 mm 0.00 W/m2
03:15 26.9 °C 24.9 °C 1012.1 hPa SSW 1.4 km/h 3.2 km/h 89% 0 mm 0.00 W/m2
03:20 27.1 °C 24.9 °C 1012.1 hPa SSW 1.4 km/h 3.2 km/h 88% 0 mm 0.00 W/m2
03:25 27 °C 25 °C 1012.1 hPa SSW 1.4 km/h 4.8 km/h 89% 0 mm 0.00 W/m2
03:30 27 °C 25 °C 1012.1 hPa SSW 1.4 km/h 3.2 km/h 89% 0 mm 0.00 W/m2
03:35 27.1 °C 24.9 °C 1012.4 hPa SW 1.4 km/h 3.2 km/h 88% 0 mm 0.00 W/m2
03:40 27.1 °C 25.1 °C 1012.4 hPa Calm   3.2 km/h 89% 0 mm 0.00 W/m2
03:45 27 °C 25 °C 1012.1 hPa Calm   1.6 km/h 89% 0 mm 0.00 W/m2
03:50 27 °C 25 °C 1012.1 hPa South 1.4 km/h 3.2 km/h 89% 0 mm 0.00 W/m2
03:55 27.1 °C 25.1 °C 1012.1 hPa SSW 3.2 km/h 4.8 km/h 89% 0 mm 0.00 W/m2
04:00 27 °C 25 °C 1011.7 hPa WSW 6.4 km/h 6.4 km/h 89% 0 mm 0.00 W/m2
04:05 27 °C 25 °C 1011.7 hPa WSW 1.4 km/h 3.2 km/h 89% 0 mm 0.00 W/m2
04:10 26.9 °C 24.9 °C 1011.7 hPa SW 1.4 km/h 3.2 km/h 89% 0 mm 0.00 W/m2
04:15 26.9 °C 24.9 °C 1012.1 hPa Calm   1.6 km/h 89% 0 mm 0.00 W/m2
04:20 26.9 °C 24.9 °C 1012.1 hPa Calm   1.6 km/h 89% 0 mm 0.00 W/m2
04:25 26.9 °C 24.9 °C 1012.1 hPa Calm   1.6 km/h 89% 0 mm 0.00 W/m2
04:30 26.9 °C 25.1 °C 1012.1 hPa Calm   1.6 km/h 90% 0 mm 0.00 W/m2
04:35 26.8 °C 25 °C 1012.1 hPa SW 4.8 km/h 4.8 km/h 90% 0 mm 0.00 W/m2
04:40 26.9 °C 25.1 °C 1011.7 hPa SW 1.4 km/h 3.2 km/h 90% 0 mm 0.00 W/m2
04:45 26.9 °C 25.1 °C 1011.7 hPa Calm   3.2 km/h 90% 0 mm 0.00 W/m2
04:50 26.8 °C 25 °C 1011.7 hPa SSW 3.2 km/h 3.2 km/h 90% 0 mm 0.00 W/m2
04:55 26.8 °C 25 °C 1011.7 hPa SSW 1.4 km/h 4.8 km/h 90% 0 mm 0.00 W/m2
05:00 26.8 °C 25 °C 1011.7 hPa Calm   3.2 km/h 90% 0 mm 0.00 W/m2
05:05 26.7 °C 25.1 °C 1011.7 hPa SSW 1.4 km/h 4.8 km/h 91% 0 mm 0.00 W/m2
05:10 26.7 °C 25.1 °C 1011.7 hPa SSW 1.4 km/h 1.6 km/h 91% 0 mm 0.00 W/m2
05:15 26.6 °C 25 °C 1011.7 hPa SSW 3.2 km/h 3.2 km/h 91% 0 mm 0.00 W/m2
05:20 26.7 °C 25.1 °C 1011.7 hPa SSW 1.4 km/h 3.2 km/h 91% 0 mm 0.00 W/m2
05:25 26.7 °C 25.1 °C 1011.7 hPa SSW 1.4 km/h 4.8 km/h 91% 0 mm 0.00 W/m2
05:30 26.8 °C 25.2 °C 1011.7 hPa SSW 1.4 km/h 3.2 km/h 91% 0 mm 0.00 W/m2
05:35 26.8 °C 25 °C 1011.7 hPa SSW 1.4 km/h 1.6 km/h 90% 0 mm 0.00 W/m2
05:40 26.8 °C 25 °C 1011.4 hPa Calm   1.6 km/h 90% 0 mm 0.00 W/m2
05:45 26.7 °C 24.9 °C 1011.4 hPa SSW 1.4 km/h 3.2 km/h 90% 0 mm 0.00 W/m2
05:50 26.7 °C 25.1 °C 1011.4 hPa SSW 3.2 km/h 4.8 km/h 91% 0 mm 0.00 W/m2
05:55 26.7 °C 25.1 °C 1011.4 hPa Calm   1.6 km/h 91% 0 mm 0.00 W/m2
06:00 26.6 °C 25 °C 1011.4 hPa Calm   1.6 km/h 91% 0 mm 0.00 W/m2
06:05 26.5 °C 24.9 °C 1011.4 hPa SSW 1.4 km/h 1.6 km/h 91% 0 mm 0.00 W/m2
06:10 26.5 °C 24.9 °C 1011.4 hPa SSW 1.4 km/h 1.6 km/h 91% 0 mm 0.00 W/m2
06:15 26.4 °C 25 °C 1011.7 hPa SSW 3.2 km/h 3.2 km/h 92% 0 mm 0.00 W/m2
06:20 26.4 °C 25 °C 1011.7 hPa SSW 3.2 km/h 3.2 km/h 92% 0 mm 0.00 W/m2
06:25 26.3 °C 24.9 °C 1011.7 hPa SSW 3.2 km/h 4.8 km/h 92% 0 mm 0.00 W/m2
06:30 26.4 °C 25 °C 1011.7 hPa SSW 1.4 km/h 3.2 km/h 92% 0 mm 0.00 W/m2
06:35 26.4 °C 25 °C 1011.7 hPa Calm   1.6 km/h 92% 0 mm 0.00 W/m2
06:40 26.5 °C 25.1 °C 1011.7 hPa South 1.4 km/h 8 km/h 92% 0 mm 0.00 W/m2
06:45 26.6 °C 25.2 °C 1011.7 hPa South 1.4 km/h 3.2 km/h 92% 0 mm 0.00 W/m2
06:50 26.6 °C 25.2 °C 1011.7 hPa South 3.2 km/h 4.8 km/h 92% 0 mm 0.00 W/m2
06:55 26.7 °C 25.3 °C 1011.7 hPa South 1.4 km/h 3.2 km/h 92% 0 mm 0.00 W/m2
07:00 26.6 °C 25.2 °C 1011.7 hPa Calm   4.8 km/h 92% 0 mm 0.00 W/m2
07:05 26.6 °C 25.2 °C 1011.7 hPa South 3.2 km/h 3.2 km/h 92% 0 mm 7.00 W/m2
07:10 26.6 °C 25.2 °C 1011.7 hPa South 1.4 km/h 1.6 km/h 92% 0 mm 11.00 W/m2
07:15 26.6 °C 25.2 °C 1011.7 hPa Calm   3.2 km/h 92% 0 mm 19.00 W/m2
07:20 26.7 °C 25.3 °C 1011.7 hPa South 3.2 km/h 4.8 km/h 92% 0 mm 28.00 W/m2
07:25 26.8 °C 25.4 °C 1011.7 hPa South 1.4 km/h 6.4 km/h 92% 0 mm 39.00 W/m2
07:30 26.8 °C 25.2 °C 1011.7 hPa South 4.7 km/h 4.8 km/h 91% 0 mm 60.00 W/m2
07:35 26.9 °C 25.3 °C 1011.7 hPa South 1.4 km/h 3.2 km/h 91% 0 mm 54.00 W/m2
07:40 27.1 °C 25.5 °C 1012.1 hPa South 3.2 km/h 3.2 km/h 91% 0 mm 47.00 W/m2
07:45 27.1 °C 25.3 °C 1012.1 hPa South 1.4 km/h 3.2 km/h 90% 0 mm 40.00 W/m2
07:50 27.1 °C 25.5 °C 1012.1 hPa South 1.4 km/h 3.2 km/h 91% 0 mm 37.00 W/m2
07:55 27 °C 25.4 °C 1012.4 hPa Calm   1.6 km/h 91% 0 mm 40.00 W/m2
08:00 27 °C 25.4 °C 1012.4 hPa Calm   1.6 km/h 91% 0 mm 49.00 W/m2
08:05 27.1 °C 25.5 °C 1012.4 hPa South 3.2 km/h 3.2 km/h 91% 0 mm 56.00 W/m2
08:10 27.2 °C 25.6 °C 1012.8 hPa South 1.4 km/h 1.6 km/h 91% 0 mm 51.00 W/m2
08:15 27.2 °C 25.4 °C 1012.8 hPa SSW 3.2 km/h 4.8 km/h 90% 0 mm 56.00 W/m2
08:20 27.2 °C 25.6 °C 1012.8 hPa SSW 1.4 km/h 3.2 km/h 91% 0 mm 81.00 W/m2
08:25 27.3 °C 25.7 °C 1012.8 hPa Calm   4.8 km/h 91% 0 mm 109.00 W/m2
08:30 27.6 °C 25.8 °C 1012.8 hPa South 1.4 km/h 4.8 km/h 90% 0 mm 130.00 W/m2
08:35 27.7 °C 25.7 °C 1012.8 hPa Calm   3.2 km/h 89% 0 mm 105.00 W/m2
08:40 27.6 °C 25.6 °C 1012.8 hPa SSW 1.4 km/h 3.2 km/h 89% 0 mm 120.00 W/m2
08:45 27.8 °C 26 °C 1012.8 hPa Calm   4.8 km/h 90% 0 mm 121.00 W/m2
08:50 27.9 °C 25.9 °C 1012.8 hPa South 3.2 km/h 4.8 km/h 89% 0 mm 127.00 W/m2
08:55 27.9 °C 25.9 °C 1012.8 hPa South 1.4 km/h 3.2 km/h 89% 0 mm 135.00 W/m2
09:00 28.1 °C 26.1 °C 1012.8 hPa SSW 3.2 km/h 4.8 km/h 89% 0 mm 153.00 W/m2
09:05 28.1 °C 25.9 °C 1012.8 hPa Calm   3.2 km/h 88% 0 mm 162.00 W/m2
09:10 28.1 °C 25.9 °C 1012.8 hPa South 6.4 km/h 6.4 km/h 88% 0 mm 181.00 W/m2
09:15 28.3 °C 26.1 °C 1012.8 hPa Calm   1.6 km/h 88% 0 mm 174.00 W/m2
09:20 28.4 °C 26.2 °C 1012.8 hPa South 3.2 km/h 4.8 km/h 88% 0 mm 158.00 W/m2
09:25 28.4 °C 26 °C 1012.8 hPa Calm   3.2 km/h 87% 0 mm 158.00 W/m2
09:30 28.4 °C 26 °C 1012.8 hPa SSW 1.4 km/h 4.8 km/h 87% 0 mm 162.00 W/m2
09:35 28.5 °C 25.9 °C 1012.8 hPa Calm   4.8 km/h 86% 0 mm 186.00 W/m2
09:40 28.7 °C 26.3 °C 1012.8 hPa SSW 3.2 km/h 8 km/h 87% 0 mm 243.00 W/m2
09:45 28.9 °C 26.1 °C 1012.8 hPa Calm   1.6 km/h 85% 0 mm 264.00 W/m2
09:50 29.2 °C 26.2 °C 1012.8 hPa NW 1.4 km/h 3.2 km/h 84% 0 mm 271.00 W/m2
09:55 29.3 °C 26.1 °C 1013.1 hPa WSW 1.4 km/h 9.7 km/h 83% 0 mm 234.00 W/m2
10:00 29.4 °C 26.2 °C 1013.1 hPa West 1.4 km/h 6.4 km/h 83% 0 mm 397.00 W/m2
10:05 30 °C 27 °C 1012.8 hPa SSW 4.7 km/h 8 km/h 84% 0 mm 571.00 W/m2
10:10 30.8 °C 27.2 °C 1012.8 hPa West 3.2 km/h 6.4 km/h 81% 0 mm 548.00 W/m2
10:15 30.3 °C 26.2 °C 1013.1 hPa WSW 3.2 km/h 11.3 km/h 79% 0 mm 308.00 W/m2
10:20 30.2 °C 26.1 °C 1013.1 hPa WSW 3.2 km/h 9.7 km/h 79% 0 mm 410.00 W/m2
10:25 30.2 °C 26.4 °C 1013.1 hPa NW 4.7 km/h 11.3 km/h 80% 0 mm 529.00 W/m2
10:30 30.4 °C 26.1 °C 1013.1 hPa WSW 3.2 km/h 9.7 km/h 78% 0 mm 376.00 W/m2
10:35 30.3 °C 26.2 °C 1013.1 hPa WSW 4.7 km/h 6.4 km/h 79% 0 mm 381.00 W/m2
10:40 30.3 °C 26.2 °C 1012.8 hPa WSW 3.2 km/h 6.4 km/h 79% 0 mm 374.00 W/m2
10:45 30.4 °C 26.6 °C 1012.8 hPa South 3.2 km/h 8 km/h 80% 0 mm 334.00 W/m2
10:50 30.3 °C 26.2 °C 1013.1 hPa WSW 6.4 km/h 11.3 km/h 79% 0 mm 276.00 W/m2
10:55 30.2 °C 26.1 °C 1013.1 hPa WSW 1.4 km/h 4.8 km/h 79% 0 mm 255.00 W/m2
11:00 30.2 °C 26.6 °C 1013.1 hPa SW 1.4 km/h 6.4 km/h 81% 0 mm 274.00 W/m2
11:05 30.4 °C 26.3 °C 1013.1 hPa SW 3.2 km/h 4.8 km/h 79% 0 mm 555.00 W/m2
11:10 31.2 °C 26.7 °C 1012.8 hPa NW 3.2 km/h 4.8 km/h 77% 0 mm 912.00 W/m2
11:15 31.6 °C 27.1 °C 1012.8 hPa SSW 1.4 km/h 8 km/h 77% 0 mm 956.00 W/m2
11:20 31.8 °C 26.8 °C 1012.8 hPa NNW 4.7 km/h 14.5 km/h 75% 0 mm 893.00 W/m2
11:25 31.6 °C 26.6 °C 1012.8 hPa SSW 6.4 km/h 6.4 km/h 75% 0 mm 884.00 W/m2
11:30 31.8 °C 26.4 °C 1012.8 hPa West 3.2 km/h 8 km/h 73% 0 mm 911.00 W/m2
11:35 32.3 °C 27.1 °C 1012.8 hPa SW 3.2 km/h 11.3 km/h 74% 0 mm 882.00 W/m2
11:40 32.6 °C 26.9 °C 1012.8 hPa WSW 6.4 km/h 9.7 km/h 72% 0 mm 923.00 W/m2
11:45 32.3 °C 26.4 °C 1012.4 hPa WNW 4.7 km/h 4.8 km/h 71% 0 mm 900.00 W/m2
11:50 32.4 °C 26.2 °C 1012.4 hPa WNW 3.2 km/h 6.4 km/h 70% 0 mm 967.00 W/m2
11:55 32.8 °C 26.4 °C 1012.1 hPa WNW 3.2 km/h 8 km/h 69% 0 mm 984.00 W/m2
12:00 32.9 °C 26.7 °C 1012.1 hPa NW 1.4 km/h 9.7 km/h 70% 0 mm 803.00 W/m2
12:05 32.3 °C 26.4 °C 1011.7 hPa SSW 4.7 km/h 11.3 km/h 71% 0 mm 302.00 W/m2
12:10 32.4 °C 26 °C 1011.7 hPa WNW 4.7 km/h 14.5 km/h 69% 0 mm 329.00 W/m2
12:15 32.3 °C 26.1 °C 1011.7 hPa North 6.4 km/h 16.1 km/h 70% 0 mm 265.00 W/m2
12:20 32.1 °C 26.2 °C 1011.7 hPa Calm   1.6 km/h 71% 0 mm 1049.00 W/m2
12:25 32.7 °C 26 °C 1011.7 hPa West 6.4 km/h 6.4 km/h 68% 0 mm 429.00 W/m2
12:30 32.9 °C 26 °C 1011.7 hPa East 3.2 km/h 9.7 km/h 67% 0 mm 1153.00 W/m2
12:35 33.8 °C 25.2 °C 1011.4 hPa WSW 1.4 km/h 4.8 km/h 61% 0 mm 1148.00 W/m2
12:40 33.7 °C 26.5 °C 1011.4 hPa North 13 km/h 14.5 km/h 66% 0 mm 432.00 W/m2
12:45 32.8 °C 25.6 °C 1011.4 hPa NW 7.9 km/h 8 km/h 66% 0 mm 424.00 W/m2
12:50 32.8 °C 26.1 °C 1011.4 hPa NNE 3.2 km/h 12.9 km/h 68% 0 mm 243.00 W/m2
12:55 32.6 °C 25.9 °C 1011.1 hPa WNW 3.2 km/h 4.8 km/h 68% 0 mm 239.00 W/m2
13:00 33.3 °C 26.3 °C 1011.1 hPa NNE 3.2 km/h 8 km/h 67% 0 mm 367.00 W/m2
13:05 33 °C 25.5 °C 1011.1 hPa NNW 4.7 km/h 4.8 km/h 65% 0 mm 350.00 W/m2
13:10 32.9 °C 25.7 °C 1011.1 hPa North 1.4 km/h 4.8 km/h 66% 0 mm 322.00 W/m2
13:15 33.2 °C 26.2 °C 1011.1 hPa North 7.9 km/h 8 km/h 67% 0 mm 656.00 W/m2
13:20 33.7 °C 26.2 °C 1010.7 hPa North 6.4 km/h 14.5 km/h 65% 0 mm 392.00 W/m2
13:25 33.4 °C 25.9 °C 1011.1 hPa NW 4.7 km/h 9.7 km/h 65% 0 mm 287.00 W/m2
13:30 33.6 °C 26.4 °C 1011.1 hPa North 4.7 km/h 6.4 km/h 66% 0 mm 1081.00 W/m2
13:35 33.7 °C 26.2 °C 1010.7 hPa SW 1.4 km/h 6.4 km/h 65% 0 mm 281.00 W/m2
13:40 33.4 °C 25.7 °C 1010.7 hPa West 6.4 km/h 11.3 km/h 64% 0 mm 290.00 W/m2
13:45 32.9 °C 25.2 °C 1010.7 hPa South 3.2 km/h 4.8 km/h 64% 0 mm 446.00 W/m2
13:50 33.4 °C 25.7 °C 1010.7 hPa South 1.4 km/h 6.4 km/h 64% 0 mm 471.00 W/m2
13:55 33.3 °C 25.6 °C 1011.1 hPa SSW 9.7 km/h 12.9 km/h 64% 0 mm 315.00 W/m2
14:00 32.7 °C 25.8 °C 1011.1 hPa SE 4.7 km/h 14.5 km/h 67% 0 mm 325.00 W/m2
14:05 31.8 °C 25.4 °C 1011.1 hPa ESE 14.3 km/h 20.9 km/h 69% 0 mm 134.00 W/m2
14:10 30 °C 24.9 °C 1011.1 hPa SE 16.3 km/h 22.5 km/h 74% 0 mm 63.00 W/m2
14:15 29.1 °C 25.1 °C 1011.1 hPa SSE 9.7 km/h 17.7 km/h 79% 0 mm 19.00 W/m2
14:20 28.3 °C 24.9 °C 1011.4 hPa SSE 19.5 km/h 19.3 km/h 82% 0 mm 9.00 W/m2
14:25 27.7 °C 24.9 °C 1011.7 hPa SE 9.7 km/h 20.9 km/h 85% 0.25 mm 11.00 W/m2
14:30 26.9 °C 24.7 °C 1011.7 hPa South 9.7 km/h 25.7 km/h 88% 1.27 mm 21.00 W/m2
14:35 26.3 °C 24.7 °C 1011.7 hPa SE 16.3 km/h 20.9 km/h 91% 5.08 mm 32.00 W/m2
14:40 25.8 °C 24.4 °C 1011.7 hPa SSE 14.3 km/h 20.9 km/h 92% 12.7 mm 40.00 W/m2
14:45 25.6 °C 24.6 °C 1011.7 hPa SE 9.7 km/h 14.5 km/h 94% 20.07 mm 40.00 W/m2
14:50 25.5 °C 24.5 °C 1012.1 hPa SE 13 km/h 22.5 km/h 94% 24.38 mm 32.00 W/m2
14:55 25.4 °C 24.5 °C 1011.7 hPa SE 13 km/h 16.1 km/h 95% 29.72 mm 39.00 W/m2
15:00 25.3 °C 24.4 °C 1012.1 hPa SE 7.9 km/h 12.9 km/h 95% 34.04 mm 47.00 W/m2
15:05 25.2 °C 24.3 °C 1011.7 hPa SE 14.3 km/h 19.3 km/h 95% 36.32 mm 91.00 W/m2
15:10 25.3 °C 24.6 °C 1011.7 hPa ESE 6.4 km/h 12.9 km/h 96% 36.83 mm 151.00 W/m2
15:15 25.3 °C 24.4 °C 1011.4 hPa ESE 9.7 km/h 12.9 km/h 95% 37.34 mm 257.00 W/m2
15:20 25.3 °C 24.4 °C 1011.4 hPa NE 11.1 km/h 16.1 km/h 95% 37.34 mm 622.00 W/m2
15:25 25.6 °C 24.7 °C 1011.1 hPa SSE 6.4 km/h 8 km/h 95% 37.08 mm 216.00 W/m2
15:30 25.3 °C 24.3 °C 1011.1 hPa South 7.9 km/h 17.7 km/h 94% 35.81 mm 179.00 W/m2
15:35 25.2 °C 24.2 °C 1011.1 hPa SSE 9.7 km/h 19.3 km/h 94% 31.24 mm 163.00 W/m2
15:40 25.3 °C 24.3 °C 1011.1 hPa SE 11.1 km/h 16.1 km/h 94% 23.37 mm 165.00 W/m2
15:45 25.5 °C 24.6 °C 1011.1 hPa SE 7.9 km/h 11.3 km/h 95% 16.76 mm 197.00 W/m2
15:50 25.7 °C 24.8 °C 1011.1 hPa ESE 6.4 km/h 9.7 km/h 95% 11.94 mm 197.00 W/m2
15:55 25.6 °C 24.6 °C 1010.7 hPa SSE 3.2 km/h 16.1 km/h 94% 6.6 mm 271.00 W/m2
16:00 25.8 °C 24.9 °C 1010.7 hPa SSE 4.7 km/h 9.7 km/h 95% 3.05 mm 202.00 W/m2
16:05 26 °C 25 °C 1010.7 hPa SSE 14.5 km/h 14.5 km/h 94% 1.02 mm 172.00 W/m2
16:10 26.1 °C 25.1 °C 1010.7 hPa South 4.7 km/h 8 km/h 94% 0.51 mm 181.00 W/m2
16:15 26.1 °C 25.1 °C 1010.7 hPa SSE 13 km/h 12.9 km/h 94% 0.25 mm 181.00 W/m2
16:20 26 °C 25 °C 1010.7 hPa SSE 9.7 km/h 14.5 km/h 94% 0.25 mm 234.00 W/m2
16:25 26.3 °C 25.4 °C 1010.7 hPa SE 11.1 km/h 11.3 km/h 95% 0.25 mm 587.00 W/m2
16:30 26.6 °C 25.6 °C 1010.7 hPa ESE 9.7 km/h 16.1 km/h 94% 0.25 mm 650.00 W/m2
16:35 26.9 °C 25.5 °C 1010.7 hPa SE 11.1 km/h 12.9 km/h 92% 0.25 mm 520.00 W/m2
16:40 26.7 °C 25.1 °C 1010.7 hPa South 14.3 km/h 16.1 km/h 91% 0.25 mm 309.00 W/m2
16:45 26.7 °C 25.1 °C 1010.7 hPa SSE 7.9 km/h 14.5 km/h 91% 0.25 mm 380.00 W/m2
16:50 26.6 °C 25 °C 1010.7 hPa ESE 3.2 km/h 12.9 km/h 91% 0 mm 454.00 W/m2
16:55 26.8 °C 25 °C 1010.7 hPa SE 17.7 km/h 17.7 km/h 90% 0 mm 589.00 W/m2
17:00 27 °C 25 °C 1010.4 hPa SE 6.4 km/h 11.3 km/h 89% 0 mm 619.00 W/m2
17:05 27.4 °C 25.4 °C 1010.4 hPa SSE 14.3 km/h 14.5 km/h 89% 0 mm 582.00 W/m2
17:10 27.5 °C 25.3 °C 1010.4 hPa SSE 6.4 km/h 14.5 km/h 88% 0 mm 461.00 W/m2
17:15 27.3 °C 24.9 °C 1010.4 hPa ESE 6.4 km/h 12.9 km/h 87% 0 mm 281.00 W/m2
17:20 27.1 °C 24.9 °C 1010 hPa ESE 9.7 km/h 11.3 km/h 88% 0 mm 211.00 W/m2
17:25 27.1 °C 24.9 °C 1010 hPa SSE 4.7 km/h 12.9 km/h 88% 0 mm 320.00 W/m2
17:30 27.2 °C 24.8 °C 1010 hPa SE 14.3 km/h 14.5 km/h 87% 0 mm 200.00 W/m2
17:35 27 °C 24.8 °C 1010 hPa SSE 7.9 km/h 14.5 km/h 88% 0 mm 179.00 W/m2
17:40 26.8 °C 24.8 °C 1009.7 hPa SE 6.4 km/h 16.1 km/h 89% 0 mm 199.00 W/m2
17:45 26.7 °C 24.7 °C 1009.7 hPa SSE 6.4 km/h 16.1 km/h 89% 0 mm 197.00 W/m2
17:50 27 °C 25 °C 1009.7 hPa SE 4.7 km/h 8 km/h 89% 0 mm 283.00 W/m2
17:55 27.3 °C 25.1 °C 1010 hPa SE 7.9 km/h 9.7 km/h 88% 0 mm 339.00 W/m2
18:00 27.3 °C 24.9 °C 1009.7 hPa SE 6.4 km/h 12.9 km/h 87% 0 mm 399.00 W/m2
18:05 27.4 °C 25 °C 1009.4 hPa SE 6.4 km/h 11.3 km/h 87% 0 mm 374.00 W/m2
18:10 27.8 °C 25.2 °C 1009.7 hPa SE 7.9 km/h 8 km/h 86% 0 mm 353.00 W/m2
18:15 27.7 °C 24.9 °C 1009.7 hPa SE 4.7 km/h 14.5 km/h 85% 0 mm 315.00 W/m2
18:20 27.7 °C 24.9 °C 1009.7 hPa SSE 7.9 km/h 12.9 km/h 85% 0 mm 220.00 W/m2
18:25 27.6 °C 25 °C 1009.4 hPa SSE 13 km/h 14.5 km/h 86% 0 mm 304.00 W/m2
18:30 27.6 °C 24.8 °C 1009.4 hPa SE 6.4 km/h 17.7 km/h 85% 0 mm 267.00 W/m2
18:35 27.7 °C 24.9 °C 1009.4 hPa SSE 14.3 km/h 14.5 km/h 85% 0 mm 244.00 W/m2
18:40 27.6 °C 24.8 °C 1009.4 hPa SSW 7.9 km/h 12.9 km/h 85% 0 mm 202.00 W/m2
18:45 27.5 °C 24.7 °C 1009 hPa South 6.4 km/h 12.9 km/h 85% 0 mm 178.00 W/m2
18:50 27.4 °C 24.8 °C 1009 hPa SE 7.9 km/h 17.7 km/h 86% 0 mm 144.00 W/m2
18:55 27.4 °C 24.8 °C 1009 hPa SSW 3.2 km/h 11.3 km/h 86% 0 mm 54.00 W/m2
19:00 27.4 °C 24.8 °C 1009 hPa South 13 km/h 12.9 km/h 86% 0 mm 47.00 W/m2
19:05 27.3 °C 24.7 °C 1009 hPa SSE 9.7 km/h 12.9 km/h 86% 0 mm 42.00 W/m2
19:10 27.4 °C 25 °C 1009 hPa SSE 9.7 km/h 9.7 km/h 87% 0 mm 37.00 W/m2
19:15 27.3 °C 24.7 °C 1008.7 hPa South 6.4 km/h 9.7 km/h 86% 0 mm 32.00 W/m2
19:20 27.3 °C 24.7 °C 1008.7 hPa South 3.2 km/h 9.7 km/h 86% 0 mm 28.00 W/m2
19:25 27.3 °C 24.7 °C 1008.7 hPa South 6.4 km/h 16.1 km/h 86% 0 mm 23.00 W/m2
19:30 27.2 °C 24.8 °C 1008.7 hPa South 6.4 km/h 11.3 km/h 87% 0 mm 19.00 W/m2
19:35 27.2 °C 24.8 °C 1008.7 hPa South 3.2 km/h 16.1 km/h 87% 0 mm 16.00 W/m2
19:40 27.2 °C 25 °C 1008.7 hPa SE 4.7 km/h 9.7 km/h 88% 0 mm 11.00 W/m2
19:45 27.2 °C 25 °C 1008.7 hPa SSE 14.5 km/h 14.5 km/h 88% 0 mm 7.00 W/m2
19:50 27.2 °C 25 °C 1008.7 hPa South 1.4 km/h 6.4 km/h 88% 0 mm 0.00 W/m2
19:55 27.1 °C 24.9 °C 1009 hPa ESE 3.2 km/h 4.8 km/h 88% 0 mm 0.00 W/m2
20:00 27.1 °C 24.9 °C 1008.7 hPa East 4.7 km/h 4.8 km/h 88% 0 mm 0.00 W/m2
20:05 26.9 °C 24.7 °C 1009 hPa East 1.4 km/h 3.2 km/h 88% 0 mm 0.00 W/m2
20:10 26.9 °C 24.9 °C 1009 hPa Calm   3.2 km/h 89% 0 mm 0.00 W/m2
20:15 26.8 °C 24.8 °C 1009.4 hPa East 1.4 km/h 3.2 km/h 89% 0 mm 0.00 W/m2
20:20 26.8 °C 25 °C 1009.4 hPa East 1.4 km/h 3.2 km/h 90% 0 mm 0.00 W/m2
20:25 26.7 °C 24.9 °C 1009.4 hPa East 1.4 km/h 3.2 km/h 90% 0 mm 0.00 W/m2
20:30 26.7 °C 24.9 °C 1009.4 hPa SE 3.2 km/h 6.4 km/h 90% 0 mm 0.00 W/m2
20:35 26.8 °C 25 °C 1009.4 hPa SE 4.7 km/h 6.4 km/h 90% 0 mm 0.00 W/m2
20:40 26.7 °C 24.9 °C 1009 hPa SSE 6.4 km/h 8 km/h 90% 0 mm 0.00 W/m2
20:45 26.7 °C 24.9 °C 1009 hPa SE 4.7 km/h 8 km/h 90% 0 mm 0.00 W/m2
20:50 26.8 °C 25 °C 1009.4 hPa SE 7.9 km/h 8 km/h 90% 0 mm 0.00 W/m2
20:55 26.7 °C 24.7 °C 1009.4 hPa South 3.2 km/h 11.3 km/h 89% 0 mm 0.00 W/m2
21:00 26.7 °C 24.7 °C 1009.7 hPa SSE 7.9 km/h 11.3 km/h 89% 0 mm 0.00 W/m2
21:05 26.7 °C 24.9 °C 1009.7 hPa SE 4.7 km/h 11.3 km/h 90% 0 mm 0.00 W/m2
21:10 26.7 °C 24.9 °C 1009.7 hPa SE 7.9 km/h 8 km/h 90% 0 mm 0.00 W/m2
21:15 26.7 °C 24.9 °C 1009.7 hPa SSE 4.7 km/h 8 km/h 90% 0 mm 0.00 W/m2
21:20 26.7 °C 24.9 °C 1009.7 hPa SE 6.4 km/h 8 km/h 90% 0 mm 0.00 W/m2
21:25 26.7 °C 24.9 °C 1009.7 hPa SE 4.7 km/h 8 km/h 90% 0 mm 0.00 W/m2
21:30 26.6 °C 24.8 °C 1009.7 hPa SE 3.2 km/h 14.5 km/h 90% 0 mm 0.00 W/m2
21:35 26.6 °C 24.8 °C 1009.7 hPa SE 3.2 km/h 6.4 km/h 90% 0 mm 0.00 W/m2
21:40 26.6 °C 24.8 °C 1010 hPa South 11.3 km/h 11.3 km/h 90% 0 mm 0.00 W/m2
21:45 26.6 °C 24.8 °C 1010 hPa SSE 1.4 km/h 6.4 km/h 90% 0 mm 0.00 W/m2
21:50 26.6 °C 24.8 °C 1010 hPa SE 1.4 km/h 4.8 km/h 90% 0 mm 0.00 W/m2
21:55 26.6 °C 25 °C 1010 hPa SE 4.7 km/h 11.3 km/h 91% 0 mm 0.00 W/m2
22:00 26.6 °C 24.8 °C 1010 hPa SE 4.7 km/h 6.4 km/h 90% 0 mm 0.00 W/m2
22:05 26.6 °C 25 °C 1010 hPa SSE 3.2 km/h 6.4 km/h 91% 0 mm 0.00 W/m2
22:10 26.5 °C 24.9 °C 1010.4 hPa SSE 3.2 km/h 8 km/h 91% 0 mm 0.00 W/m2
22:15 26.4 °C 24.8 °C 1010.4 hPa South 3.2 km/h 8 km/h 91% 0 mm 0.00 W/m2
22:20 26.5 °C 24.9 °C 1010 hPa SE 3.2 km/h 4.8 km/h 91% 0 mm 0.00 W/m2
22:25 26.4 °C 24.8 °C 1010 hPa SE 3.2 km/h 6.4 km/h 91% 0 mm 0.00 W/m2
22:30 26.4 °C 24.8 °C 1010.4 hPa SSE 3.2 km/h 8 km/h 91% 0 mm 0.00 W/m2
22:35 26.5 °C 24.9 °C 1010 hPa SSE 4.7 km/h 9.7 km/h 91% 0 mm 0.00 W/m2
22:40 26.6 °C 25 °C 1010.4 hPa South 3.2 km/h 4.8 km/h 91% 0 mm 0.00 W/m2
22:45 26.6 °C 25 °C 1010.4 hPa SSE 6.4 km/h 6.4 km/h 91% 0 mm 0.00 W/m2
22:50 26.6 °C 25 °C 1010.4 hPa SSE 6.4 km/h 9.7 km/h 91% 0 mm 0.00 W/m2
22:55 26.4 °C 24.8 °C 1010.4 hPa SSE 4.7 km/h 4.8 km/h 91% 0 mm 0.00 W/m2
23:00 26.4 °C 25 °C 1010.4 hPa SSE 6.4 km/h 6.4 km/h 92% 0 mm 0.00 W/m2
23:05 26.4 °C 25 °C 1010.4 hPa SSE 3.2 km/h 4.8 km/h 92% 0 mm 0.00 W/m2
23:10 26.4 °C 25 °C 1010.4 hPa SE 3.2 km/h 3.2 km/h 92% 0 mm 0.00 W/m2
23:15 26.4 °C 25 °C 1010.4 hPa Calm   3.2 km/h 92% 0 mm 0.00 W/m2
23:20 26.3 °C 24.9 °C 1010.4 hPa SE 1.4 km/h 4.8 km/h 92% 0 mm 0.00 W/m2
23:25 26.3 °C 24.9 °C 1010.4 hPa SE 1.4 km/h 1.6 km/h 92% 0 mm 0.00 W/m2
23:30 26.3 °C 24.9 °C 1010.4 hPa SE 3.2 km/h 4.8 km/h 92% 0 mm 0.00 W/m2
23:35 26.3 °C 25.1 °C 1010.4 hPa SE 4.7 km/h 4.8 km/h 93% 0 mm 0.00 W/m2
23:40 26.3 °C 25.1 °C 1010.4 hPa SE 1.4 km/h 3.2 km/h 93% 0 mm 0.00 W/m2
23:45 26.3 °C 25.1 °C 1010.4 hPa SE 1.4 km/h 4.8 km/h 93% 0 mm 0.00 W/m2
23:50 26.2 °C 25 °C 1010.4 hPa SE 3.2 km/h 3.2 km/h 93% 0 mm 0.00 W/m2
23:55 26.2 °C 25 °C 1010.4 hPa SE 4.7 km/h 4.8 km/h 93% 0 mm 0.00 W/m2
Villages of Bridgestone, Spring, TX USA
Compliments of Weather Underground - 2.75 mb